Terminal Aerodrome Forecast
Issued by NWS Wakefield, VA

Home | Current Version | Previous Version | Text Only | Print | Product List | Glossary On
Versions: 1 2 3 4 5 6 7 8 9 10 11 12 13 14 15 16
000
FTUS41 KAKQ 281000 AAA
TAFRIC
TAF AMD
KRIC 281012Z 2810/2906 26012G20KT P6SM SCT250
     FM281500 29016G28KT P6SM FEW070
     FM282300 33010KT P6SM SKC=

USA.gov is the U.S. government's official web portal to all federal, state and local government web resources and services.